Stations météo

réclame
Mon MeteoGroup
Beauvais, France (7055): Température de l'air & dewpoint: 17.09.2018 02:00:00 - 23.09.2018 02:00:00 (CEST)Beauvais, France (7055): Température de l'air 5cm: 17.09.2018 02:00:00 - 23.09.2018 02:00:00 (CEST)Beauvais, France (7055): Température de l'air -20cm & Température de l'air -100cm: 17.09.2018 02:00:00 - 23.09.2018 02:00:00 (CEST)Beauvais, France (7055): Vitesse du vent & gusts: 17.09.2018 02:00:00 - 23.09.2018 02:00:00 (CEST)Beauvais, France (7055): Direction du vent: 17.09.2018 02:00:00 - 23.09.2018 02:00:00 (CEST)Beauvais, France (7055): reduced air pressure: 17.09.2018 02:00:00 - 23.09.2018 02:00:00 (CEST)Beauvais, France (7055): visibility: 17.09.2018 02:00:00 - 23.09.2018 02:00:00 (CEST)Beauvais, France (7055): Ensoleillement: 17.09.2018 02:00:00 - 23.09.2018 02:00:00 (CEST)Beauvais, France (7055): Quantités de précipitations: 17.09.2018 02:00:00 - 23.09.2018 02:00:00 (CEST)
Date & Time tt [°C] td [°C] tt 5cm [°C] tt -20cm [°C] tt -100cm [°C] ff [km/h] ff [knt] fx [km/h] fx [knt] dd ppp [hPa] vv [km] sd [min] rr [mm]
23.09.2018 02:00:00 18,5 17,5 16,9 16,5 16,5 22 12 48 26 SW 1012,6 9 0 0,0
23.09.2018 01:00:00 17,9 16,9 14,8 16,5 16,5 25 14 42 23 SW 1012,6 18 0 0,0
23.09.2018 00:00:00 15,1 14,8 13,1 16,5 16,5 11 6 20 11 SSW 1013,2 6 0 0,0
22.09.2018 23:00:00 13,1 12,5 12,4 16,5 16,5 9 5 23 13 S 1014,0 3,7 0 0,4
22.09.2018 22:00:00 12,7 11,1 12,0 16,5 16,5 10 5 36 19 SSE 1014,9 7 0 0,6
22.09.2018 21:00:00 13,4 9,8 11,9 16,5 16,5 14 7 37 20 S 1015,9 20 0 0,0
22.09.2018 20:00:00 13,7 9,7 11,8 16,5 16,5 12 7 39 21 S 1016,6 40 0 0,0
22.09.2018 19:00:00 12,7 10,6 12,0 16,5 16,5 7 4 15 8 SE 1017,5 46 0 0,0
22.09.2018 18:00:00 13,6 9,8 12,8 16,5 16,5 5 3 24 13 SE 1018,5 45 0 0,0
22.09.2018 17:00:00 14,8 8,1 15,4 16,5 16,5 11 6 29 16 S 1019,8 20 0 0,0
22.09.2018 16:00:00 15,7 8,2 18,9 16,5 16,5 13 7 27 15 WSW 1020,6 51 0 0,0
22.09.2018 15:00:00 15,8 8,3 17,8 16,5 16,5 16 9 34 18 SW 1021,3 27 0 0,0
22.09.2018 14:00:00 17,1 6,6 20,7 16,5 16,5 23 12 37 20 SW 1021,6 60 4 0,0
22.09.2018 13:00:00 17,7 6,8 26,9 16,5 16,5 16 9 35 19 SW 1021,4 34 39 0,0
22.09.2018 12:00:00 17,0 8,4 22,3 16,6 16,5 21 11 36 19 SW 1021,8 45 37 0,0
22.09.2018 11:00:00 14,9 8,4 19,1 16,6 16,5 19 10 30 16 SW 1022,6 44 38 0,0
22.09.2018 10:00:00 13,2 8,5 12,5 16,7 16,5 9 5 20 11 SW 1022,7 45 18 0,0
22.09.2018 09:00:00 11,6 8,1 11,0 16,7 16,5 8 5 22 12 S 1022,7 44 16 0,0
22.09.2018 08:00:00 11,5 8,0 10,5 16,8 16,5 8 4 16 9 SW 1022,8 49 0 0,0
22.09.2018 07:00:00 11,5 7,8 10,5 16,8 16,5 9 5 22 12 SW 1022,4 47 0 0,0
22.09.2018 06:00:00 11,2 7,7 9,5 16,8 16,5 8 4 16 9 WSW 1022,7 44 0 0,0
22.09.2018 05:00:00 10,6 7,3 9,5 16,9 16,5 6 4 17 9 SSW 1022,3 46 0 0,0
22.09.2018 04:00:00 11,1 7,0 9,7 16,9 16,5 8 4 24 13 SW 1022,6 46 0 0,0
22.09.2018 03:00:00 11,7 7,0 9,9 16,9 16,5 13 7 28 15 SW 1022,2 48 0 0,0
22.09.2018 02:00:00 11,8 6,5 9,9 16,9 16,5 12 7 27 15 SW 1022,2 51 0 0,0
22.09.2018 01:00:00 11,9 6,4 10,0 17,0 16,5 12 7 24 13 WSW 1022,1 51 0 0,0
22.09.2018 00:00:00 12,4 6,0 10,0 17,0 16,5 11 6 29 16 WSW 1021,7 55 0 0,0
21.09.2018 23:00:00 12,3 5,7 9,7 17,0 16,5 10 5 26 14 SW 1021,3 56 0 0,0
21.09.2018 22:00:00 12,7 6,1 9,7 17,0 16,5 12 6 28 15 WSW 1020,6 55 0 0,0
21.09.2018 21:00:00 13,2 6,1 10,4 17,0 16,5 12 7 27 15 W 1020,0 54 0 0,0
21.09.2018 20:00:00 13,9 5,5 11,1 17,0 16,5 14 7 31 17 W 1018,8 57 0 0,0
21.09.2018 19:00:00 15,8 5,7 14,1 16,9 16,5 18 10 43 23 W 1017,8 40 40 0,0
21.09.2018 18:00:00 16,4 6,2 16,2 16,9 16,5 22 12 49 26 W 1017,4 31 12 0,0
21.09.2018 17:00:00 17,3 5,9 20,0 16,9 16,5 23 12 54 29 W 1016,8 20 31 0,0
21.09.2018 16:00:00 17,8 6,0 23,4 16,9 16,5 32 17 51 28 W 1016,0 20 52 0,0
21.09.2018 15:00:00 17,1 6,6 23,1 16,9 16,5 30 16 56 31 W 1015,6 20 44 0,0
21.09.2018 14:00:00 17,2 6,7 19,7 16,9 16,5 27 15 54 29 WNW 1014,5 26 20 0,0
21.09.2018 13:00:00 16,5 8,9 18,3 16,9 16,5 29 15 52 28 WNW 1013,5 32 43 0,0
21.09.2018 12:00:00 15,5 10,0 19,6 17,0 16,5 25 13 55 30 W 1012,9 25 36 0,0
21.09.2018 11:00:00 15,6 11,0 18,9 16,9 16,5 22 12 41 22 W 1011,7 20 45 0,0
21.09.2018 10:00:00 14,1 11,8 15,4 17,0 16,5 19 10 37 20 WSW 1010,5 19 20 0,0
21.09.2018 09:00:00 13,6 12,3 14,3 17,0 16,5 16 9 37 20 WSW 1009,6 33 6 0,0
21.09.2018 08:00:00 13,8 12,9 14,4 17,0 16,5 15 8 54 29 WSW 1008,4 43 0 2,9
21.09.2018 07:00:00 16,8 15,5 16,0 16,9 16,5 23 12 42 23 SSW 1005,8 4,1 0 1,8
21.09.2018 06:00:00 17,1 15,1 16,1 16,9 16,5 21 11 56 30 SSW 1006,3 6 0 1,4
21.09.2018 05:00:00 18,6 13,9 16,8 16,9 16,5 22 12 42 23 SSW 1006,9 43 0 0,0
21.09.2018 04:00:00 18,4 13,7 16,1 16,9 16,5 21 11 37 20 SSW 1007,0 42 0 0,0
21.09.2018 03:00:00 18,4 13,5 15,9 16,9 16,5 13 7 34 19 SSW 1007,8 42 0 0,0
21.09.2018 02:00:00 18,8 13,4 16,1 16,9 16,5 16 9 30 16 SSW 1009,0 42 0 0,0
21.09.2018 01:00:00 19,5 13,4 16,5 16,9 16,5 21 11 36 20 SW 1009,7 41 0 0,0
21.09.2018 00:00:00 20,2 13,4 17,2 16,9 16,5 19 10 35 19 SSW 1010,0 42 0 0,0
20.09.2018 23:00:00 20,7 13,4 17,4 16,8 16,4 17 9 34 18 SSW 1010,4 43 0 0,0
20.09.2018 22:00:00 20,9 13,3 17,8 16,8 16,5 16 9 30 16 SSW 1010,9 49 0 0,0
20.09.2018 21:00:00 21,1 13,0 17,8 16,7 16,5 13 7 25 14 S 1011,7 51 0 0,0
20.09.2018 20:00:00 22,3 12,8 19,4 16,7 16,5 16 9 43 23 SSW 1012,1 56 0 0,0
20.09.2018 19:00:00 24,0 12,6 23,0 16,6 16,5 26 14 41 22 SSW 1012,4 40 41 0,0
20.09.2018 18:00:00 24,4 12,7 24,1 16,6 16,5 24 13 43 23 SSW 1013,2 37 22 0,0
20.09.2018 17:00:00 25,5 13,0 27,4 16,6 16,4 18 10 41 22 S 1013,6 19 32 0,0
20.09.2018 16:00:00 24,8 13,4 27,8 16,6 16,5 23 12 47 26 S 1014,6 17 35 0,0
20.09.2018 15:00:00 24,5 13,4 33,4 16,5 16,4 24 13 39 21 SSW 1015,7 17 60 0,0
20.09.2018 14:00:00 23,3 13,7 30,6 16,6 16,5 21 12 37 20 S 1016,4 18 60 0,0
20.09.2018 13:00:00 21,7 14,1 27,4 16,6 16,5 19 10 35 19 SW 1017,5 20 1 0,0
20.09.2018 12:00:00 20,9 14,1 29,1 16,6 16,5 20 11 32 17 SW 1017,9 16 38 0,0
20.09.2018 11:00:00 20,1 15,1 26,0 16,6 16,5 16 9 27 15 SSW 1018,2 16 50 0,0
20.09.2018 10:00:00 17,3 14,6 17,9 16,7 16,5 11 6 18 10 SSW 1018,7 15 58 0,0
20.09.2018 09:00:00 15,4 13,9 12,4 16,7 16,5 6 3 11 6 SSE 1019,0 18 45 0,0
20.09.2018 08:00:00 14,0 12,7 11,2 16,7 16,5 7 4 19 10 S 1018,8 19 0 0,0
20.09.2018 07:00:00 13,7 12,3 10,5 16,8 16,5 9 5 16 9 SSW 1018,6 27 0 0,0
20.09.2018 06:00:00 14,2 12,2 10,6 16,8 16,5 9 5 16 8 S 1018,7 34 0 0,0
20.09.2018 05:00:00 13,8 12,0 9,9 16,8 16,5 9 5 13 7 SSW 1018,8 37 0 0,0
20.09.2018 04:00:00 14,0 11,9 9,3 16,8 16,5 10 5 13 7 SSW 1018,8 33 0 0,0
20.09.2018 03:00:00 13,0 11,1 9,1 16,8 16,5 5 3 10 6 SSW 1018,8 31 0 0,0
20.09.2018 02:00:00 12,2 9,9 9,0 16,8 16,5 3 2 6 4 SSW 1019,1 28 0 0,0
20.09.2018 01:00:00 13,8 11,1 9,8 16,8 16,5 0 0 4 2 N 1019,1 28 0 0,0
20.09.2018 00:00:00 14,8 11,0 11,0 16,8 16,5 0 0 11 6 N 1019,2 31 0 0,0
19.09.2018 23:00:00 16,9 12,4 12,7 16,7 16,5 7 4 11 6 SSW 1019,2 37 0 0,0
19.09.2018 22:00:00 18,3 12,7 14,3 16,7 16,5 6 3 13 7 SSW 1019,1 39 0 0,0
19.09.2018 21:00:00 19,4 13,1 15,2 16,7 16,5 9 5 13 7 S 1018,8 37 0 0,0
19.09.2018 20:00:00 20,8 12,7 17,2 16,6 16,5 8 4 27 14 SSW 1018,5 40 0 0,0
19.09.2018 19:00:00 23,2 13,1 20,8 16,6 16,5 15 8 34 18 SW 1018,1 42 27 0,0
19.09.2018 18:00:00 23,8 12,7 23,9 16,6 16,5 22 12 38 21 SW 1018,1 46 25 0,0
19.09.2018 17:00:00 23,7 12,7 25,4 16,5 16,5 22 12 42 23 WSW 1018,1 29 29 0,0
19.09.2018 16:00:00 24,2 12,8 30,7 16,5 16,4 21 11 44 24 SW 1018,3 28 50 0,0
19.09.2018 15:00:00 23,5 13,1 31,0 16,5 16,4 23 13 43 23 SW 1018,1 36 - -
19.09.2018 14:00:00 22,0 13,1 27,0 16,5 16,5 22 12 37 20 SSW 1018,7 47 - -
19.09.2018 13:00:00 - - 27,9 - - 20 11 38 21 SSW - 20 - -
19.09.2018 12:00:00 19,7 14,1 25,1 16,6 16,5 23 12 40 22 SSW 1019,4 19 - -
19.09.2018 11:00:00 19,6 - 28,5 - - 22 12 38 21 SW - 19 - -
19.09.2018 10:00:00 18,0 14,5 - 16,6 16,5 16 8 23 12 SSW 1018,4 17 - -
19.09.2018 09:00:00 - - - - - 9 5 16 9 SSW - 16 - -
19.09.2018 08:00:00 - - - - - 5 3 14 7 SW - 16 - -
19.09.2018 07:00:00 - - - - - 8 4 14 8 SSW - 18 - -
19.09.2018 06:00:00 14,9 12,8 10,0 16,7 16,5 9 5 14 8 SSW 1017,2 19 - -
19.09.2018 05:00:00 14,4 12,1 9,8 16,7 16,5 5 3 11 6 SSW 1017,3 20 - -
19.09.2018 04:00:00 15,3 12,2 10,5 16,7 16,5 6 3 10 5 SW 1017,3 35 - -
19.09.2018 03:00:00 - - 11,5 - - 5 3 12 6 S - 20 - -
19.09.2018 02:00:00 16,0 12,9 11,4 16,7 16,5 8 5 17 9 SSW 1016,7 35 - -
19.09.2018 01:00:00 - - 10,2 - - 9 5 14 8 SSW - 18 - -
19.09.2018 00:00:00 14,6 12,3 - 16,6 16,5 2 1 9 5 SE 1016,4 19 - -
18.09.2018 23:00:00 - - - - - 4 2 8 5 ESE - 37 - -
18.09.2018 22:00:00 - - - - - 4 2 8 4 SE - 40 - -
18.09.2018 21:00:00 - - - - - 2 1 6 3 ENE - 50 - -
18.09.2018 20:00:00 - - 17,5 - - 4 2 16 9 W - 59 - -
18.09.2018 19:00:00 - - 21,6 - - 9 5 21 11 WSW - 20 - -
18.09.2018 18:00:00 23,9 13,7 25,7 16,4 16,5 12 6 42 23 W 1015,0 40 - -
18.09.2018 17:00:00 24,6 13,5 26,3 16,3 16,5 18 10 31 17 SW 1014,8 41 0 0,0
18.09.2018 16:00:00 24,9 13,1 29,1 16,3 16,5 17 9 42 23 SW 1014,6 12 12 0,0
18.09.2018 15:00:00 25,3 13,5 35,9 16,3 16,5 22 12 37 20 SW 1014,5 0,2 55 0,0
18.09.2018 14:00:00 24,5 14,0 35,3 16,3 16,5 22 12 38 21 SW 1014,6 15 60 0,0
18.09.2018 13:00:00 22,6 14,4 24,6 16,3 16,5 24 13 38 20 SSW 1014,6 20 24 0,0
18.09.2018 12:00:00 21,8 14,9 25,6 16,3 16,5 21 11 39 21 SW 1014,5 22 32 0,0
18.09.2018 11:00:00 20,8 14,0 24,0 16,3 16,5 20 11 32 18 SW 1014,0 32 21 0,0
18.09.2018 10:00:00 19,5 15,2 20,7 16,4 16,5 13 7 23 12 SSW 1013,6 13 60 0,0
18.09.2018 09:00:00 17,7 14,4 11,8 16,4 16,5 11 6 18 10 SW 1013,0 15 45 0,0
18.09.2018 08:00:00 15,7 12,3 8,7 16,4 16,5 8 4 17 9 WSW 1012,8 22 0 0,0
18.09.2018 07:00:00 13,6 10,0 7,6 16,4 16,5 2 1 10 5 SSE 1012,1 29 0 0,0
18.09.2018 06:00:00 13,0 8,3 8,2 16,4 16,5 5 3 9 5 SE 1011,3 39 0 0,0
18.09.2018 05:00:00 13,6 8,8 9,1 16,4 16,5 4 2 8 5 ESE 1011,2 34 0 0,0
18.09.2018 04:00:00 14,8 8,7 10,4 16,4 16,5 5 3 11 6 E 1011,1 33 0 0,0
18.09.2018 03:00:00 15,1 8,8 10,8 16,4 16,6 6 3 12 7 SE 1011,3 34 0 0,0
18.09.2018 02:00:00 14,7 8,9 11,2 16,4 16,6 6 3 14 8 ESE 1011,7 31 0 0,0
18.09.2018 01:00:00 15,5 8,2 12,5 16,4 16,6 9 5 16 9 ESE 1011,9 34 0 0,0
18.09.2018 00:00:00 17,4 9,3 11,1 16,4 16,6 10 5 17 9 ESE 1012,1 31 0 0,0
17.09.2018 23:00:00 15,9 9,1 9,7 16,4 16,6 9 5 16 8 ESE 1012,6 36 0 0,0
17.09.2018 22:00:00 16,9 8,6 10,8 16,3 16,6 9 5 13 7 ESE 1012,9 38 0 0,0
17.09.2018 21:00:00 18,4 7,8 11,6 16,3 16,6 3 2 13 7 ESE 1013,1 42 0 0,0
17.09.2018 20:00:00 20,7 8,0 15,1 16,2 16,6 8 4 18 10 E 1013,0 17 0 0,0
17.09.2018 19:00:00 23,9 9,8 21,9 16,1 16,6 9 5 18 10 ESE 1013,5 45 9 0,0
17.09.2018 18:00:00 26,5 6,5 25,3 16,1 16,6 9 5 18 10 SSE 1013,8 34 23 0,0
17.09.2018 17:00:00 27,1 6,5 28,6 16,1 16,6 9 5 24 13 SSE 1014,6 16 43 0,0
17.09.2018 16:00:00 26,8 7,3 30,8 16,0 16,6 13 7 28 15 SSE 1015,4 15 57 0,0
17.09.2018 15:00:00 26,3 7,3 33,0 16,1 16,6 15 8 33 18 SSE 1016,2 14 60 0,0
17.09.2018 14:00:00 25,4 8,8 32,8 16,1 16,6 15 8 28 15 E 1016,9 19 60 0,0
17.09.2018 13:00:00 23,9 10,2 32,6 16,1 16,6 15 8 22 12 SE 1017,9 29 60 0,0
17.09.2018 12:00:00 21,5 11,8 31,3 16,2 16,6 8 5 13 7 SSE 1018,9 35 60 0,0
17.09.2018 11:00:00 17,8 11,1 24,8 16,2 16,6 4 2 11 6 SE 1019,5 18 60 0,0
17.09.2018 10:00:00 14,7 10,7 17,1 16,3 16,6 0 0 5 3 N 1019,9 19 60 0,0
17.09.2018 09:00:00 9,8 9,5 5,4 16,4 16,6 0 0 5 3 N 1019,9 5 50 0,0
17.09.2018 08:00:00 6,2 5,8 3,5 16,4 16,6 2 1 12 7 NNW 1020,2 20 0 0,0
17.09.2018 07:00:00 5,8 5,1 3,1 16,5 16,7 6 3 8 4 ENE 1019,8 18 0 0,0
17.09.2018 06:00:00 5,0 3,3 3,6 16,5 16,6 3 1 9 5 SE 1020,2 29 0 0,0
17.09.2018 05:00:00 6,6 5,5 3,9 16,5 16,7 6 3 9 5 WNW 1020,9 20 0 0,0
17.09.2018 04:00:00 6,7 4,9 3,8 16,5 16,7 4 2 8 4 NW 1020,6 35 0 0,0
17.09.2018 03:00:00 7,1 5,6 4,1 16,6 16,7 0 0 8 4 N 1020,7 33 0 0,0
17.09.2018 02:00:00 7,3 5,4 4,8 16,5 16,7 0 0 0 0 N 1020,7 32 0 0,0

tt = Température de l'air
td = dewpoint
tt 5cm = Température de l'air 5cm
tt -20cm = Température de l'air -20cm
tt -100cm = Température de l'air -100cm
ff = Vitesse du vent
fx = gusts
dd = Direction du vent
ppp = reduced air pressure
vv = visibility
sd = Ensoleillement
rr = Quantités de précipitations

stations d'obs. à proximité